This demonstration page uses our WeatherBlox Daily Observations layout. Learn more.

Left ArrowRight Arrow

38.89511, -77.03637

Hourly Observations for July 23, 2015

Temp ( °F °C ) Dew Point ( °F °C ) Humidity (%) Winds ( mph kmh ) Pressure ( in mb ) Visibility ( mi km ) Precip ( " mm )
12:52 am 00:52 Mostly Cloudy 77 25 57 13.9 50 50 NNW 5 7 29.96 1015 10 16 0.00 0.00
1:52 am 01:52 Mostly Cloudy 77 25 58 14.4 52 52 Calm 29.96 1015 10 16 0.00 0.00
2:52 am 02:52 Mostly Cloudy 74 23.3 57 13.9 56 56 NNW 5 7 29.96 1015 10 16 0.00 0.00
3:52 am 03:52 Mostly Cloudy 75 23.9 58 14.4 55 55 Calm 29.96 1015 10 16 0.00 0.00
4:52 am 04:52 Mostly Cloudy 72 22.2 59 15 64 64 NNW 7 11 29.96 1015 10 16 0.00 0.00
5:52 am 05:52 Mostly Cloudy 72 22.2 58 14.4 61 61 NNW 7 11 29.97 1015 10 16 0.00 0.00
6:52 am 06:52 Partly Cloudy 72 22.2 58 14.4 61 61 NNW 6 9 29.98 1015 10 16 0.00 0.00
7:52 am 07:52 Partly Cloudy 76 24.4 57 13.9 52 52 NNW 8 13 30.00 1016 10 16 0.00 0.00
8:52 am 08:52 Partly Cloudy 77 25 57 13.9 50 50 N 6 9 30.01 1016 10 16 0.00 0.00
9:52 am 09:52 Partly Cloudy 79 26.1 54 12.2 42 42 NNW 6 9 30.00 1016 10 16 0.00 0.00
10:52 am 10:52 Partly Cloudy 81 27.2 55 12.8 41 41 NE 6 9 30.00 1016 10 16 0.00 0.00
11:52 am 11:52 Partly Cloudy 82 27.8 55 12.8 40 40 NW 12 19 29.98 1015 10 16 0.00 0.00
12:52 pm 12:52 Partly Cloudy 85 29.4 56 13.3 37 37 NNW 6 9 29.96 1015 10 16 0.00 0.00
1:52 pm 13:52 Partly Cloudy 86 30 56 13.3 36 36 NNW 14 22 29.96 1015 10 16 0.00 0.00
2:52 pm 14:52 Partly Cloudy 87 30.6 57 13.9 36 36 NNW 10 17 29.95 1014 10 16 0.00 0.00
3:52 pm 15:52 Partly Cloudy 87 30.6 57 13.9 36 36 N 13 20 29.94 1014 10 16 0.00 0.00
4:52 pm 16:52 Partly Cloudy 87 30.6 57 13.9 36 36 N 12 19 29.93 1014 10 16 0.00 0.00
5:52 pm 17:52 Partly Cloudy 86 30 57 13.9 37 37 NNW 8 13 29.93 1014 10 16 0.00 0.00
6:52 pm 18:52 Partly Cloudy 85 29.4 57 13.9 39 39 NNW 8 13 29.93 1014 10 16 0.00 0.00
7:52 pm 19:52 Partly Cloudy 83 28.3 53 11.7 36 36 N 7 11 29.94 1014 10 16 0.00 0.00
8:52 pm 20:52 Partly Cloudy 82 27.8 56 13.3 41 41 NNE 8 13 29.96 1014 10 16 0.00 0.00
9:52 pm 21:52 Mostly Clear 80 26.7 57 13.9 45 45 ENE 6 9 29.96 1015 10 16 0.00 0.00
10:52 pm 22:52 Clear 79 26.1 59 15 50 50 Calm 29.96 1015 10 16 0.00 0.00
11:52 pm 23:52 Clear 77 25 60 15.6 56 56 Calm 29.97 1015 10 16 0.00 0.00

Powered by AerisWeather